South Lake Tahoe, CA

1:00 PM PST on December 10, 2019 (GMT -0800)
Lake Tahoe

Weather History for KTVL - November, 2019

Change the Weather History Date:

Tuesday, November 19, 2019

  Actual Average Record
Temperature  
Mean Temperature 40 °F 35 °F  
Max Temperature 54 °F 49 °F 64 °F (2006)
Min Temperature 26 °F 21 °F -3 °F (1994)
Degree Days  
Heating Degree Days 25 30  
Month to date heating degree days 422 513  
Since 1 July heating degree days 1738 1745  
Cooling Degree Days 0 0  
Month to date cooling degree days 0 0  
Year to date cooling degree days 20 31  
Moisture  
Dew Point 28 °F    
Average Humidity 67    
Maximum Humidity 96    
Minimum Humidity 26    
Precipitation  
Precipitation 0.05 in - 4.56 in (1950)
Month to date precipitation 0.05  
Year to date precipitation 18.07  
Sea Level Pressure  
Sea Level Pressure 29.64 in    
Wind  
Wind Speed 6 mph ()    
Max Wind Speed 21 mph    
Max Gust Speed 38 mph    
Visibility 8.3 miles    
Events Rain , Snow    
T = Trace of Precipitation, MM = Missing Value Source: Averaged Metar Reports

Daily Weather History Graph

Daily Weather History Graph

Search for Another Location

Airport or City:

Astronomy

Nov. 19, 2019 Rise Set
Actual Time 6:46 AM PST 4:43 PM PST
Civil Twilight 6:18 AM PST 5:12 PM PST
Nautical Twilight 5:45 AM PST 5:44 PM PST
Astronomical Twilight 5:14 AM PST 6:16 PM PST
Moon 11:44 PM PST (11/19) 1:00 PM PST (11/19)
Length of Visible Light 10h 54m
Length of Day
9h 56m
Waning Gibbous, 50% of the Moon is Illuminated
Nov 19
Waning Gibbous
Nov 19
Last Quarter
Nov 26
New
Dec 3
First Quarter
Dec 11
Full

Hourly Weather History & Observations

Time (PST) Temp. Windchill Dew Point Humidity Pressure Visibility Wind Dir Wind Speed Gust Speed Precip Events Conditions
12:53 AM 46.9 °F - 21.0 °F 36% 29.82 in 10.0 mi Variable 3.5 mph - N/A   Clear
1:53 AM 41.0 °F - 21.0 °F 45% 29.79 in 10.0 mi Calm Calm - N/A   Clear
2:53 AM 48.9 °F - 19.0 °F 31% 29.73 in 10.0 mi Calm Calm - N/A   Clear
3:53 AM 53.1 °F - 19.9 °F 27% 29.70 in 10.0 mi South 13.8 mph 25.3 mph N/A   Clear
4:53 AM 50.0 °F - 23.0 °F 35% 29.71 in 10.0 mi South 16.1 mph 24.2 mph N/A   Clear
5:53 AM 48.9 °F - 25.0 °F 39% 29.70 in 10.0 mi South 18.4 mph 26.5 mph N/A   Clear
6:53 AM 48.0 °F - 28.9 °F 48% 29.70 in 10.0 mi South 13.8 mph 21.9 mph N/A   Clear
7:53 AM 50.0 °F - 34.0 °F 54% 29.71 in 10.0 mi South 16.1 mph 25.3 mph N/A   Clear
8:53 AM 51.1 °F - 37.0 °F 59% 29.70 in 10.0 mi SSW 11.5 mph 18.4 mph 0.00 in Rain Light Rain
9:53 AM 48.9 °F - 37.9 °F 66% 29.71 in 10.0 mi South 11.5 mph 19.6 mph 0.01 in   Partly Cloudy
10:53 AM 54.0 °F - 36.0 °F 51% 29.68 in 10.0 mi South 13.8 mph 28.8 mph N/A   Partly Cloudy
11:53 AM 51.1 °F - 34.0 °F 52% 29.63 in 10.0 mi Variable 6.9 mph 17.3 mph N/A   Overcast
12:53 PM 51.1 °F - 33.1 °F 50% 29.60 in 10.0 mi SSW 11.5 mph 21.9 mph N/A   Mostly Cloudy
1:53 PM 50.0 °F - 33.1 °F 52% 29.60 in 10.0 mi SSW 6.9 mph - N/A   Mostly Cloudy
2:53 PM 46.0 °F 41.4 °F 35.1 °F 66% 29.59 in 10.0 mi SSW 9.2 mph 16.1 mph 0.01 in Rain Light Rain
3:53 PM 45.0 °F 43.5 °F 27.0 °F 49% 29.56 in 10.0 mi WSW 3.5 mph - 0.00 in   Clear
4:53 PM 42.1 °F 37.7 °F 28.9 °F 60% 29.56 in 10.0 mi SSW 6.9 mph - N/A   Clear
5:53 PM 36.0 °F 32.1 °F 28.9 °F 76% 29.56 in 10.0 mi SW 4.6 mph - N/A   Clear
6:53 PM 32.0 °F - 28.0 °F 85% 29.58 in 10.0 mi Calm Calm - N/A   Clear
7:53 PM 28.9 °F 23.9 °F 26.1 °F 89% 29.58 in 10.0 mi SSW 4.6 mph - N/A   Clear
8:53 PM 26.1 °F - 24.1 °F 92% 29.58 in 10.0 mi Calm Calm - N/A   Clear
9:53 PM 27.0 °F 21.6 °F 24.1 °F 89% 29.59 in 10.0 mi South 4.6 mph - N/A   Mostly Cloudy
10:24 PM 28.0 °F 24.2 °F 25.0 °F 88% 29.65 in 10.0 mi SSE 3.5 mph - N/A   Overcast
10:33 PM 28.0 °F - 26.1 °F 92% 29.64 in 2.5 mi Calm Calm - 0.00 in Snow Light Snow
10:38 PM 28.0 °F - 26.1 °F 92% 29.64 in 1.2 mi Calm Calm - 0.01 in Snow Light Snow
10:48 PM 28.4 °F 24.6 °F 26.6 °F 93% 29.64 in 3.0 mi SSW 3.5 mph - 0.02 in Snow Light Snow
10:53 PM 28.9 °F - 27.0 °F 92% 29.56 in 2.0 mi Calm Calm - 0.02 in Snow Light Snow
11:20 PM 28.9 °F 22.8 °F 28.0 °F 96% 29.64 in 3.0 mi South 5.8 mph - 0.01 in Snow Light Snow
11:30 PM 30.0 °F 25.2 °F 28.0 °F 92% 29.64 in 2.5 mi South 4.6 mph - 0.01 in Snow Light Snow
11:34 PM 30.0 °F 25.2 °F 28.9 °F 96% 29.64 in 3.0 mi Variable 4.6 mph - 0.01 in Snow Light Snow
11:53 PM 35.1 °F 28.6 °F 30.9 °F 85% 29.55 in 10.0 mi NE 8.1 mph - 0.01 in   Overcast